FW6754 Weather Reports


Display with metric or nautical units.
time (UTC)temp
F
wind
direction
speed
MPH
gust
MPH
rain 1hr
in
rain 24hr
in
rain mn
in
humidity
%
barometer
mb
20260510185412 56 0.0 0.0 0.00 0.00 0.00 10 1009.5
20260510184911 56 0.0 0.0 0.00 0.00 0.00 10 1009.7
20260510184412 56 0.0 0.0 0.00 0.00 0.00 10 1009.6
20260510183911 56 0.0 0.0 0.00 0.00 0.00 10 1009.7
20260510183412 56 0.0 0.0 0.00 0.00 0.00 10 1009.5
20260510181911 56 0.0 0.0 0.00 0.00 0.00 10 1009.6
20260510180911 56 0.0 0.0 0.00 0.00 0.00 10 1009.3
20260510175912 56 0.0 0.0 0.00 0.00 0.00 10 1009.5
20260510175412 56 0.0 0.0 0.00 0.00 0.00 10 1009.4
20260510174911 57 0.0 0.0 0.00 0.00 0.00 10 1009.5
20260510174412 57 0.0 0.0 0.00 0.00 0.00 10 1009.5
20260510173912 57 0.0 0.0 0.00 0.00 0.00 10 1009.6
20260510173411 57 0.0 0.0 0.00 0.00 0.00 10 1009.5
20260510171913 58 0.0 0.0 0.00 0.00 0.00 10 1009.3
20260510171412 59 0.0 0.0 0.00 0.00 0.00 10 1009.2
20260510170912 59 0.0 0.0 0.00 0.00 0.00 10 1009.2
20260510170411 61 0.0 0.0 0.00 0.00 0.00 10 1008.9
20260510165912 62 0.0 0.0 0.00 0.00 0.00 10 1008.7
20260510165411 64 0.0 0.0 0.00 0.00 0.00 10 1008.5
20260510164912 65 0.0 0.0 0.00 0.00 0.00 10 1008.6
20260510164412 64 0.0 0.0 0.00 0.00 0.00 10 1008.7
20260510163912 63 0.0 0.0 0.00 0.00 0.00 10 1008.8
20260510163412 64 0.0 0.0 0.00 0.00 0.00 10 1009.0
20260510162412 66 0.0 0.0 0.00 0.00 0.00 10 1009.0
20260510161912 67 0.0 0.0 0.00 0.00 0.00 10 1008.8
20260510161413 66 0.0 0.0 0.00 0.00 0.00 10 1008.9
20260510160911 66 0.0 0.0 0.00 0.00 0.00 10 1008.9
20260510160412 68 0.0 0.0 0.00 0.00 0.00 10 1008.8
20260510155912 70 0.0 0.0 0.00 0.00 0.00 10 1008.6
20260510154912 70 0.0 0.0 0.00 0.00 0.00 10 1008.7
20260510154413 68 0.0 0.0 0.00 0.00 0.00 10 1008.9
20260510153912 68 0.0 0.0 0.00 0.00 0.00 10 1008.9
20260510153411 68 0.0 0.0 0.00 0.00 0.00 10 1008.9
20260510152912 67 0.0 0.0 0.00 0.00 0.00 10 1009.2
20260510152412 65 0.0 0.0 0.00 0.00 0.00 10 1009.4
20260510151911 65 0.0 0.0 0.00 0.00 0.00 10 1009.5
20260510151411 65 0.0 0.0 0.00 0.00 0.00 10 1009.5
20260510145911 61 0.0 0.0 0.00 0.00 0.00 10 1009.9
20260510144912 65 0.0 0.0 0.00 0.00 0.00 10 1010.0
20260510144412 65 0.0 0.0 0.00 0.00 0.00 10 1010.0
20260510143412 62 0.0 0.0 0.00 0.00 0.00 10 1010.3
20260510142911 60 0.0 0.0 0.00 0.00 0.00 10 1010.4
20260510142411 59 0.0 0.0 0.00 0.00 0.00 10 1010.5
20260510141412 59 0.0 0.0 0.00 0.00 0.00 10 1010.6
20260510140912 59 0.0 0.0 0.00 0.00 0.00 10 1010.6
20260510140412 59 0.0 0.0 0.00 0.00 0.00 10 1010.5
20260510135912 59 0.0 0.0 0.00 0.00 0.00 10 1010.5
20260510135413 60 0.0 0.0 0.00 0.00 0.00 10 1010.7
20260510134911 59 0.0 0.0 0.00 0.00 0.00 10 1010.8
20260510133912 59 0.0 0.0 0.00 0.00 0.00 10 1010.8
20260510133412 59 0.0 0.0 0.00 0.00 0.00 10 1010.9
20260510132913 59 0.0 0.0 0.00 0.00 0.00 10 1011.0
20260510132413 59 0.0 0.0 0.00 0.00 0.00 10 1010.9
20260510131412 59 0.0 0.0 0.00 0.00 0.00 10 1011.1
20260510130912 59 0.0 0.0 0.00 0.00 0.00 10 1011.1
20260510130411 60 0.0 0.0 0.00 0.00 0.00 10 1011.2
20260510125411 60 0.0 0.0 0.00 0.00 0.00 10 1011.2
20260510124911 60 0.0 0.0 0.00 0.00 0.00 10 1011.4
20260510123912 61 0.0 0.0 0.00 0.00 0.00 10 1011.5
20260510123412 62 0.0 0.0 0.00 0.00 0.00 10 1011.3
20260510122412 62 0.0 0.0 0.00 0.00 0.00 10 1011.4
20260510121912 63 0.0 0.0 0.00 0.00 0.00 10 1011.4
20260510121413 63 0.0 0.0 0.00 0.00 0.00 10 1011.4
20260510120912 63 0.0 0.0 0.00 0.00 0.00 10 1011.4
20260510120412 63 0.0 0.0 0.00 0.00 0.00 10 1011.5
20260510115912 64 0.0 0.0 0.00 0.00 0.00 10 1011.4
20260510115411 64 0.0 0.0 0.00 0.00 0.00 10 1011.4
20260510114911 65 0.0 0.0 0.00 0.00 0.00 10 1011.5
20260510114411 65 0.0 0.0 0.00 0.00 0.00 10 1011.6
20260510113412 66 0.0 0.0 0.00 0.00 0.00 10 1011.6
20260510112912 66 0.0 0.0 0.00 0.00 0.00 10 1011.7
20260510112412 66 0.0 0.0 0.00 0.00 0.00 10 1011.7
20260510111912 65 0.0 0.0 0.00 0.00 0.00 10 1011.8
20260510111412 66 0.0 0.0 0.00 0.00 0.00 10 1011.9
20260510110912 66 0.0 0.0 0.00 0.00 0.00 10 1011.8
20260510110412 65 0.0 0.0 0.00 0.00 0.00 10 1011.9
20260510105912 64 0.0 0.0 0.00 0.00 0.00 10 1012.0
20260510105411 63 0.0 0.0 0.00 0.00 0.00 10 1012.1
20260510104912 62 0.0 0.0 0.00 0.00 0.00 10 1012.1
20260510104411 62 0.0 0.0 0.00 0.00 0.00 10 1012.2
20260510103912 62 0.0 0.0 0.00 0.00 0.00 10 1012.2
20260510103411 62 0.0 0.0 0.00 0.00 0.00 10 1012.3
20260510102412 62 0.0 0.0 0.00 0.00 0.00 10 1012.3
20260510101912 61 0.0 0.0 0.00 0.00 0.00 10 1012.4
20260510101413 61 0.0 0.0 0.00 0.00 0.00 10 1012.4
20260510100911 61 0.0 0.0 0.00 0.00 0.00 10 1012.5
20260510100411 61 0.0 0.0 0.00 0.00 0.00 10 1012.4
20260510095411 61 0.0 0.0 0.00 0.00 0.00 10 1012.4
20260510094912 60 0.0 0.0 0.00 0.00 0.00 10 1012.5
20260510094412 60 0.0 0.0 0.00 0.00 0.00 10 1012.5
20260510093911 60 0.0 0.0 0.00 0.00 0.00 10 1012.5
20260510092912 60 0.0 0.0 0.00 0.00 0.00 10 1012.5
20260510092413 60 0.0 0.0 0.00 0.00 0.00 10 1012.5
20260510091412 59 0.0 0.0 0.00 0.00 0.00 10 1012.6
20260510090912 59 0.0 0.0 0.00 0.00 0.00 10 1012.6
20260510085912 58 0.0 0.0 0.00 0.00 0.00 10 1012.6
20260510085412 58 0.0 0.0 0.00 0.00 0.00 10 1012.6
20260510084411 59 0.0 0.0 0.00 0.00 0.00 10 1012.3
20260510083911 59 0.0 0.0 0.00 0.00 0.00 10 1012.2
20260510083411 59 0.0 0.0 0.00 0.00 0.00 10 1012.2
20260510082912 60 0.0 0.0 0.00 0.00 0.00 10 1012.2
20260510082412 60 0.0 0.0 0.00 0.00 0.00 10 1012.1
20260510081912 60 0.0 0.0 0.00 0.00 0.00 10 1012.0
20260510081411 61 0.0 0.0 0.00 0.00 0.00 10 1012.0
20260510075911 62 0.0 0.0 0.00 0.00 0.00 10 1011.8
20260510075412 62 0.0 0.0 0.00 0.00 0.00 10 1011.8
20260510074912 62 0.0 0.0 0.00 0.00 0.00 10 1011.7
20260510074412 62 0.0 0.0 0.00 0.00 0.00 10 1011.7
20260510073912 62 0.0 0.0 0.00 0.00 0.00 10 1011.7
20260510072913 63 0.0 0.0 0.00 0.00 0.00 10 1011.7
20260510072411 63 0.0 0.0 0.00 0.00 0.00 10 1011.8
20260510071412 63 0.0 0.0 0.00 0.00 0.00 10 1011.8
20260510070912 63 0.0 0.0 0.00 0.00 0.00 10 1011.8
20260510070411 63 0.0 0.0 0.00 0.00 0.00 10 1011.8
20260510065911 63 0.0 0.0 0.00 0.00 0.00 10 1011.8
20260510065412 62 0.0 0.0 0.00 0.00 0.00 10 1011.9
20260510064912 62 0.0 0.0 0.00 0.00 0.00 10 1011.9
20260510064411 61 0.0 0.0 0.00 0.00 0.00 10 1011.9
20260510063412 60 0.0 0.0 0.00 0.00 0.00 10 1011.9
20260510062912 60 0.0 0.0 0.00 0.00 0.00 10 1012.0
20260510062412 60 0.0 0.0 0.00 0.00 0.00 10 1012.0
20260510061912 59 0.0 0.0 0.00 0.00 0.00 10 1012.0
20260510061412 59 0.0 0.0 0.00 0.00 0.00 10 1012.0
20260510060411 58 0.0 0.0 0.00 0.00 0.00 10 1012.0
20260510055412 58 0.0 0.0 0.00 0.00 0.00 10 1012.0
20260510054912 57 0.0 0.0 0.00 0.00 0.00 10 1012.0
20260510053912 57 0.0 0.0 0.00 0.00 0.00 10 1012.0
20260510053412 56 0.0 0.0 0.00 0.00 0.00 10 1012.0
20260510052912 56 0.0 0.0 0.00 0.00 0.00 10 1012.0
20260510052412 55 0.0 0.0 0.00 0.00 0.00 10 1012.0
20260510051912 55 0.0 0.0 0.00 0.00 0.00 10 1012.0
20260510051412 55 0.0 0.0 0.00 0.00 0.00 10 1012.1
20260510050911 54 0.0 0.0 0.00 0.00 0.00 10 1012.2
20260510050412 54 0.0 0.0 0.00 0.00 0.00 10 1012.1
20260510045912 54 0.0 0.0 0.00 0.00 0.00 10 1012.1
20260510045412 54 0.0 0.0 0.00 0.00 0.00 10 1012.1
20260510044912 54 0.0 0.0 0.00 0.00 0.00 10 1012.2
20260510044412 54 0.0 0.0 0.00 0.00 0.00 10 1012.2
20260510043912 53 0.0 0.0 0.00 0.00 0.00 10 1012.2
20260510042911 53 0.0 0.0 0.00 0.00 0.00 10 1012.2
20260510041911 53 0.0 0.0 0.00 0.00 0.00 10 1012.2
20260510041412 53 0.0 0.0 0.00 0.00 0.00 10 1012.2
20260510040912 53 0.0 0.0 0.00 0.00 0.00 10 1012.2
20260510040411 52 0.0 0.0 0.00 0.00 0.00 10 1012.2
20260510035912 52 0.0 0.0 0.00 0.00 0.00 10 1012.1
20260510035412 52 0.0 0.0 0.00 0.00 0.00 10 1012.2
20260510034912 52 0.0 0.0 0.00 0.00 0.00 10 1012.2
20260510033911 52 0.0 0.0 0.00 0.00 0.00 10 1012.3
20260510033411 52 0.0 0.0 0.00 0.00 0.00 10 1012.4
20260510032412 52 0.0 0.0 0.00 0.00 0.00 10 1012.5
20260510031911 52 0.0 0.0 0.00 0.00 0.00 10 1012.4
20260510030911 51 0.0 0.0 0.00 0.00 0.00 10 1012.4
20260510030411 51 0.0 0.0 0.00 0.00 0.00 10 1012.6
20260510025911 51 0.0 0.0 0.00 0.00 0.00 10 1012.5
20260510025412 51 0.0 0.0 0.00 0.00 0.00 10 1012.4
20260510024913 51 0.0 0.0 0.00 0.00 0.00 10 1012.4
20260510024412 51 0.0 0.0 0.00 0.00 0.00 10 1012.4
20260510023912 51 0.0 0.0 0.00 0.00 0.00 10 1012.4
20260510023412 52 0.0 0.0 0.00 0.00 0.00 10 1012.4
20260510022913 52 0.0 0.0 0.00 0.00 0.00 10 1012.2
20260510022412 52 0.0 0.0 0.00 0.00 0.00 10 1012.1
20260510021912 52 0.0 0.0 0.00 0.00 0.00 10 1012.1
20260510021412 52 0.0 0.0 0.00 0.00 0.00 10 1012.1
20260510020912 52 0.0 0.0 0.00 0.00 0.00 10 1012.1
20260510020411 52 0.0 0.0 0.00 0.00 0.00 10 1012.1
20260510015912 52 0.0 0.0 0.00 0.00 0.00 10 1012.1
20260510015412 52 0.0 0.0 0.00 0.00 0.00 10 1012.1
20260510014912 53 0.0 0.0 0.00 0.00 0.00 10 1012.2
20260510014413 53 0.0 0.0 0.00 0.00 0.00 10 1012.2
20260510013912 53 0.0 0.0 0.00 0.00 0.00 10 1012.2
20260510013412 54 0.0 0.0 0.00 0.00 0.00 10 1012.0
20260510012911 54 0.0 0.0 0.00 0.00 0.00 10 1012.0
20260510011412 54 0.0 0.0 0.00 0.00 0.00 10 1012.0
20260510010912 54 0.0 0.0 0.00 0.00 0.00 10 1012.0
20260510010411 54 0.0 0.0 0.00 0.00 0.00 10 1012.1
20260510005911 54 0.0 0.0 0.00 0.00 0.00 10 1012.1
20260510004912 54 0.0 0.0 0.00 0.00 0.00 10 1012.1
20260510004411 54 0.0 0.0 0.00 0.00 0.00 10 1012.2
20260510003912 54 0.0 0.0 0.00 0.00 0.00 10 1012.2
20260510003412 54 0.0 0.0 0.00 0.00 0.00 10 1012.3
20260510002911 54 0.0 0.0 0.00 0.00 0.00 10 1012.4
20260510001911 54 0.0 0.0 0.00 0.00 0.00 10 1012.4
20260510001411 54 0.0 0.0 0.00 0.00 0.00 10 1012.4
20260510000912 54 0.0 0.0 0.00 0.00 0.00 10 1012.4
20260510000412 54 0.0 0.0 0.00 0.00 0.00 10 1012.6
20260509235911 54 0.0 0.0 0.00 0.00 0.00 10 1012.6
20260509235411 54 0.0 0.0 0.00 0.00 0.00 10 1012.6
20260509234912 53 0.0 0.0 0.00 0.00 0.00 10 1012.6
20260509234411 54 0.0 0.0 0.00 0.00 0.00 10 1012.8
20260509233412 53 0.0 0.0 0.00 0.00 0.00 10 1013.0
20260509232912 53 0.0 0.0 0.00 0.00 0.00 10 1012.9
20260509232412 53 0.0 0.0 0.00 0.00 0.00 10 1013.1
20260509231912 53 0.0 0.0 0.00 0.00 0.00 10 1013.0
20260509231411 53 0.0 0.0 0.00 0.00 0.00 10 1013.0
20260509230913 53 0.0 0.0 0.00 0.00 0.00 10 1013.2
20260509230412 53 0.0 0.0 0.00 0.00 0.00 10 1013.1
20260509225912 53 0.0 0.0 0.00 0.00 0.00 10 1013.2
20260509225413 53 0.0 0.0 0.00 0.00 0.00 10 1013.2
20260509224913 53 0.0 0.0 0.00 0.00 0.00 10 1013.2
20260509224412 53 0.0 0.0 0.00 0.00 0.00 10 1013.2
20260509223912 53 0.0 0.0 0.00 0.00 0.00 10 1013.3
20260509222912 53 0.0 0.0 0.00 0.00 0.00 10 1013.3
20260509222412 53 0.0 0.0 0.00 0.00 0.00 10 1013.4
20260509221911 53 0.0 0.0 0.00 0.00 0.00 10 1013.4
20260509221413 54 0.0 0.0 0.00 0.00 0.00 10 1013.3
20260509220911 54 0.0 0.0 0.00 0.00 0.00 10 1013.3
20260509220412 54 0.0 0.0 0.00 0.00 0.00 10 1013.3
20260509215911 54 0.0 0.0 0.00 0.00 0.00 10 1013.3
20260509214411 54 0.0 0.0 0.00 0.00 0.00 10 1013.4
20260509213912 54 0.0 0.0 0.00 0.00 0.00 10 1013.4
20260509213412 54 0.0 0.0 0.00 0.00 0.00 10 1013.4
20260509212911 54 0.0 0.0 0.00 0.00 0.00 10 1013.4
20260509212411 54 0.0 0.0 0.00 0.00 0.00 10 1013.3
20260509211912 55 0.0 0.0 0.00 0.00 0.00 10 1013.3
20260509211413 55 0.0 0.0 0.00 0.00 0.00 10 1013.2
20260509210911 55 0.0 0.0 0.00 0.00 0.00 10 1013.2
20260509205913 55 0.0 0.0 0.00 0.00 0.00 10 1013.3
20260509205412 55 0.0 0.0 0.00 0.00 0.00 10 1013.3
20260509203912 56 0.0 0.0 0.00 0.00 0.00 10 1013.2
20260509203411 56 0.0 0.0 0.00 0.00 0.00 10 1013.3
20260509202411 56 0.0 0.0 0.00 0.00 0.00 10 1013.3
20260509201911 57 0.0 0.0 0.00 0.00 0.00 10 1013.2
20260509201411 57 0.0 0.0 0.00 0.00 0.00 10 1013.1
20260509200911 57 0.0 0.0 0.00 0.00 0.00 10 1013.0
20260509200412 57 0.0 0.0 0.00 0.00 0.00 10 1013.0
20260509195912 57 0.0 0.0 0.00 0.00 0.00 10 1013.0
20260509195412 58 0.0 0.0 0.00 0.00 0.00 10 1013.0
20260509194913 58 0.0 0.0 0.00 0.00 0.00 10 1012.9
20260509194412 58 0.0 0.0 0.00 0.00 0.00 10 1012.9
20260509193912 58 0.0 0.0 0.00 0.00 0.00 10 1012.7
20260509193412 59 0.0 0.0 0.00 0.00 0.00 10 1012.8
20260509192912 59 0.0 0.0 0.00 0.00 0.00 10 1012.6
20260509192411 60 0.0 0.0 0.00 0.00 0.00 10 1012.7
20260509191911 60 0.0 0.0 0.00 0.00 0.00 10 1012.6
20260509191411 61 0.0 0.0 0.00 0.00 0.00 10 1012.6
20260509190911 61 0.0 0.0 0.00 0.00 0.00 10 1012.4
20260509190412 62 0.0 0.0 0.00 0.00 0.00 10 1012.5
20260509185913 62 0.0 0.0 0.00 0.00 0.00 10 1012.2